Вернуться в каталог

GLOBALSTAR M048

АктивенСвязьUNKNOWN
NORAD 25872·PAYLOAD·🇺🇸 United States

Запущен Jul 25, 1999 с Cape Canaveral Space Force Station

Loading…

Ближайшие Пролёты (ближайшие 24 часа)

TLE

СвежийSource: Space-Track

Эпоха: Sep 14, 2026, 11:08 UTC

1 25872U 99041A   26257.46434984 -.00000050  00000-0  53920-3 0  9999
2 25872  51.9407 337.5958 0012993 250.3206 122.5559 11.33865391176513

Отслеживайте GLOBALSTAR M048 в реальном времени с AllMySat

Download on the App Store